Location: Unspecified
(43.4354°N, 0.0000°E)
Time: 01:55:29
(UTC+00:00)

Transit 2A - Pass Details

Date: 18 June 2019
Orbit: 596 x 962 km, 66.7° (Epoch: 16 August)

Event Time Altitude Azimuth Distance (km) Brightness Sun altitude
Rises 07:59:13 0° 335° (NNW) 3,530 9.2 37.0°
Reaches altitude 10° 08:02:58 10° 356° (N) 2,518 8.7 37.7°
Maximum altitude 08:06:21 16° 32° (NNE) 2,074 8.8 38.3°
Drops below altitude 10° 08:09:34 10° 69° (ENE) 2,367 9.6 38.9°
Sets 08:12:54 0° 91° (E) 3,210 10.1 39.5°
